Regional Weather Roundup
Issued by NWS

Home | Current Version | Previous Version | Graphics & Text | Print | Product List | Glossary On
Versions: 1 2 3 4 5 6 7 8 9 10 11 12 13 14 15 16 17 18 19 20 21 22 23 24 25 26 27 28 29 30 31 32 33 34 35 36 37 38 39 40 41 42 43 44 45 46 47 48 49 50
000
ASUS43 KDTX 260601
RWRMI
MICHIGAN HOURLY REGIONAL WEATHER ROUNDUP
NATIONAL WEATHER SERVICE DETROIT/PONTIAC MI
200 AM EDT FRI AUG 26 2016

NOTE: "FAIR" INDICATES FEW OR NO CLOUDS BELOW 12,000 FEET WITH NO
SIGNIFICANT WEATHER AND/OR OBSTRUCTION TO VISIBILITY.

MIZ047>049-052>055-059>063-066>070-074>076-081>083-260700-
SOUTHEAST LOWER MICHIGAN

CITY           SKY/WX    TMP DP  RH WIND       PRES   REMARKS
ADRIAN         FAIR      67  64  90 NW7       30.08S
6HR MIN TEMP:  67; 6HR MAX TEMP:  79;

ALMA           FAIR      60  60  99 CALM      30.06S
ANN ARBOR      MOCLDY    65  62  90 W6        30.07R
BAD AXE        FAIR      63  60  90 CALM      30.04R
CARO           FAIR      61  60  98 CALM      30.04R
DETROIT CITY   FAIR      71  64  78 NW6       30.05R
6HR MIN TEMP:  71; 6HR MAX TEMP:  81;

DETROIT        FAIR      68  63  84 W6        30.06R
6HR MIN TEMP:  68; 6HR MAX TEMP:  80;

FLINT          FAIR      65  60  84 W5        30.06R
6HR MIN TEMP:  65; 6HR MAX TEMP:  80;

GROSSE ILE     FAIR      69  64  82 NW5       30.05R
6HR MIN TEMP:  69; 6HR MAX TEMP:  81;

HILLSDALE      MOCLDY    64  62  93 CALM      30.10R
6HR MIN TEMP:  51; 6HR MAX TEMP:  84;

HOWELL         FAIR      63  60  92 W5        30.07S

CITY           SKY/WX    TMP DP  RH WIND       PRES   REMARKS
JACKSON          N/A     64  63  96 CALM      30.09R
6HR MIN TEMP:  64; 6HR MAX TEMP:  76;

LAMBERTVILLE   FAIR      71  67  87 W3        30.07S
6HR MIN TEMP:  71; 6HR MAX TEMP:  82;

LANSING        FAIR      63  59  87 CALM      30.08R
6HR MIN TEMP:  63; 6HR MAX TEMP:  77;

LAPEER         FAIR      65  62  90 NW3       30.06R
6HR MIN TEMP:  65; 6HR MAX TEMP:  76;

MASON          FAIR      63  60  90 CALM      30.08R
MONROE         FAIR      67  65  92 W12       30.06R
6HR MIN TEMP:  67; 6HR MAX TEMP:  80;

MT. CLEMENS    FAIR      70  62  75 W9        30.03R
6HR MIN TEMP:  70; 6HR MAX TEMP:  80;

PONTIAC        FAIR      66  60  81 NW9       30.05R
6HR MIN TEMP:  66; 6HR MAX TEMP:  78;

PORT HURON     FAIR      66  64  94 W3        30.04R
TRI CITIES     FAIR      64  60  87 SW7       30.05R
6HR MIN TEMP:  64; 6HR MAX TEMP:  77;

MIDLAND        FAIR      61  60  97 CALM      30.04R
6HR MIN TEMP:  61; 6HR MAX TEMP:  77;

TROY           FAIR      71  61  70 W6        30.07R
SAGINAW HB     FAIR      63  59  88 SW5       30.04S
$$
MIZ043>046-050>051-056>058-064>065-071>073-077>080-260700-
SOUTHWEST LOWER MICHIGAN

CITY           SKY/WX    TMP DP  RH WIND       PRES   REMARKS
BATTLE CREEK   FAIR      61  61 100 S5        30.09R
6HR MIN TEMP:  61; 6HR MAX TEMP:  73;

BENTON HARBOR  FAIR      64  62  93 CALM      30.08R FOG
6HR MIN TEMP:  64; 6HR MAX TEMP:  74;

BIG RAPIDS     FAIR      60  58  96 CALM      30.06R
6HR MIN TEMP:  60; 6HR MAX TEMP:  73;

COLDWATER      MOCLDY    64  64 100 CALM      30.09S
6HR MIN TEMP:  63; 6HR MAX TEMP:  76;

FREMONT        FAIR      62  61  98 SW3       30.06S
HOLLAND        FAIR      65  63  93 W3        30.08S
6HR MIN TEMP:  61; 6HR MAX TEMP:  72;

GRAND RAPIDS   FAIR      64  61  90 W7        30.08R
6HR MIN TEMP:  64; 6HR MAX TEMP:  74;

IONIA          FAIR      61  59  92 SW6       30.07R
6HR MIN TEMP:  61; 6HR MAX TEMP:  73;

KALAMAZOO      FAIR      66  61  84 CALM      30.09R
6HR MIN TEMP:  65; 6HR MAX TEMP:  75;

LUDINGTON      CLOUDY    70  64  79 W7        30.04S
6HR MIN TEMP:  69; 6HR MAX TEMP:  72;

MARSHALL       FAIR      61  61 100 CALM      30.09R
MOUNT PLEASANT FAIR      64  59  85 W3        30.04S
6HR MIN TEMP:  64; 6HR MAX TEMP:  76;

MUSKEGON       FAIR      71  65  81 W6        30.07R
6HR MIN TEMP:  65; 6HR MAX TEMP:  72;

SOUTH HAVEN    FAIR      64  63  99 CALM      30.09R
$$
MIZ016>042-260700-
NORTHERN LOWER MICHIGAN

CITY           SKY/WX    TMP DP  RH WIND       PRES   REMARKS
ALPENA         FAIR      65  56  72 SW6       29.99R
6HR MIN TEMP:  64; 6HR MAX TEMP:  77;

BEAVER ISLAND  FAIR      66  57  71 NW6       30.01R
6HR MIN TEMP:  66; 6HR MAX TEMP:  70;

BELLAIRE       FAIR      60  58  92 CALM      30.00S
6HR MIN TEMP:  60; 6HR MAX TEMP:  72;

CADILLAC       FAIR      59  57  93 SW6       30.05S
CHARLEVOIX     FAIR      69  60  70 N12G20    30.03R
FRANKFORT      FAIR      71  61  71 W10G16    30.03R
GAYLORD        FAIR      61  56  83 W5        30.02S
6HR MIN TEMP:  61; 6HR MAX TEMP:  71;

GRAYLING       FAIR      62  58  86 W6        30.04R
HARBOR SPRINGS FAIR      69  64  84 NW7       29.99R
HOUGHTON LAKE  FAIR      67  59  75 W8        30.04S
6HR MIN TEMP:  66; 6HR MAX TEMP:  74;

MANISTEE       FAIR      70  62  76 W12       30.03R
OSCODA         FAIR      64  56  78 W5        30.00S
6HR MIN TEMP:  63; 6HR MAX TEMP:  76;

PELLSTON       FAIR      68  63  84 NW8       29.99R
6HR MIN TEMP:  62; 6HR MAX TEMP:  70;

ROGERS CITY    FAIR      66  57  73 SW10      29.98S
TRAVERSE CITY  FAIR      67  62  84 W6        30.01R
6HR MIN TEMP:  67; 6HR MAX TEMP:  74;

$$
MIZ007>008-015-260700-
EASTERN UPPER MICHIGAN

CITY           SKY/WX    TMP DP  RH WIND       PRES   REMARKS
KINROSS        CLOUDY    63  57  81 NW9       29.98R
6HR MIN TEMP:  62; 6HR MAX TEMP:  69;

MACKINAC ISLAN FAIR      64  64 100 NW6       29.98R
6HR MIN TEMP:  64; 6HR MAX TEMP:  70;

NEWBERRY       MOCLDY    62  56  82 W7        29.99S
6HR MIN TEMP:  62; 6HR MAX TEMP:  70;

S. S. MARIE    FAIR      65  58  78 W7        29.96R
6HR MIN TEMP:  62; 6HR MAX TEMP:  70;

MUNISING         N/A     64  54  69 W7        29.99S
6HR MIN TEMP:  64; 6HR MAX TEMP:  71;

$$
MIZ004>006-011>014-085-260700-
CENTRAL UPPER MICHIGAN

CITY           SKY/WX    TMP DP  RH WIND       PRES   REMARKS
MANISTIQUE     MOCLDY    62  56  82 NW6       30.00S
6HR MIN TEMP:  60; 6HR MAX TEMP:  68;

ESCANABA       FAIR      60  55  83 W3        30.02R
6HR MIN TEMP:  59; 6HR MAX TEMP:  76;

MENOMINEE      FAIR     N/A N/A N/A VRB3      30.05R
SAWYER-GWINN   FAIR      58  52  81 NW5       30.02S
6HR MIN TEMP:  58; 6HR MAX TEMP:  74;

$$
MIZ001>003-009>011-084-260700-
WESTERN UPPER MICHIGAN

CITY           SKY/WX    TMP DP  RH WIND       PRES   REMARKS
IRON MOUNTAIN  FAIR      59  51  75 CALM      30.04R
6HR MIN TEMP:  58; 6HR MAX TEMP:  74;

HOUGHTON       MOCLDY    64  57  78 W15       29.98R
6HR MIN TEMP:  64; 6HR MAX TEMP:  67;

COPPER HARBOR    N/A     65  59  81 NW8G18    29.95R
6HR MIN TEMP:  65; 6HR MAX TEMP:  69;

IRONWOOD       FAIR      55  53  93 W8        30.06R
6HR MIN TEMP:  55; 6HR MAX TEMP:  66;

$$

ABBREVIATIONS USED IN REMARKS
   TC - TEMPERATURE IN CELSIUS
  WCI - WIND CHILL INDEX
   HX - HEAT INDEX
  VSB - VISIBILITY




USA.gov is the U.S. government's official web portal to all federal, state and local government web resources and services.